Date,TemperatureHighF,TemperatureAvgF,TemperatureLowF,DewpointHighF,DewpointAvgF,DewpointLowF,HumidityHigh,HumidityAvg,HumidityLow,PressureMaxIn,PressureMinIn,WindSpeedMaxMPH,WindSpeedAvgMPH,GustSpeedMaxMPH,PrecipitationSumIn
2013-3-1,53,40,32,40,36,31,100,90,58,0.00,40.00,6,2,11,0.01
2013-3-2,49,38,28,37,31,22,99,79,42,0.00,40.00,5,3,11,0.01
2013-3-3,49,39,30,32,27,16,89,65,41,0.00,40.00,10,4,15,0.01
2013-3-4,50,35,23,29,19,10,74,52,40,0.00,40.00,7,5,12,0.00
2013-3-5,44,38,32,33,29,23,98,73,45,0.00,40.00,11,6,29,0.00
2013-3-6,36,32,27,31,27,20,98,83,67,0.00,40.00,15,8,29,0.12
2013-3-7,43,31,23,26,20,14,95,67,31,0.00,40.00,9,4,15,0.01
2013-3-8,46,32,22,26,22,12,96,71,25,0.00,40.00,9,6,16,0.00
2013-3-9,53,37,22,23,20,16,92,56,26,0.00,40.00,6,4,11,0.00
2013-3-10,55,41,23,29,22,16,82,49,22,0.00,40.00,8,4,11,0.00
2013-3-11,59,42,28,36,30,25,91,65,31,0.00,40.00,7,4,12,0.00
2013-3-12,62,44,28,39,32,24,98,68,36,0.00,40.00,7,4,10,0.00
2013-3-13,60,45,32,35,30,25,79,57,38,0.00,40.00,7,3,10,0.00
2013-3-14,64,44,33,36,31,25,83,62,27,0.00,40.00,10,4,19,0.00
2013-3-15,59,44,31,34,31,28,88,63,33,0.00,40.00,10,5,19,0.00
2013-3-16,51,38,28,34,29,20,98,75,30,0.00,40.00,22,8,34,0.00
2013-3-17,44,35,27,28,22,18,83,61,38,0.00,40.00,22,8,34,0.00
2013-3-18,52,36,22,27,22,19,91,61,29,0.00,40.00,6,4,11,0.00
2013-3-19,54,40,30,42,28,15,94,65,43,0.00,40.00,8,5,19,0.10
2013-3-20,43,40,29,40,33,19,90,78,66,0.00,40.00,20,12,35,0.05
2013-3-21,39,30,25,20,18,15,72,59,43,0.00,40.00,12,7,20,0.01
2013-3-22,37,29,23,18,15,13,70,57,41,0.00,40.00,14,8,25,0.00
2013-3-23,48,30,15,22,16,12,86,59,28,0.00,40.00,8,4,13,0.00
2013-3-24,56,38,25,30,24,19,79,57,32,0.00,40.00,7,5,11,0.00
2013-3-25,59,43,31,37,28,24,83,58,30,0.00,40.00,9,6,18,0.00
2013-3-26,53,42,36,38,36,32,99,79,47,0.00,40.00,11,4,18,0.02
2013-3-27,58,42,33,41,34,31,98,77,36,0.00,40.00,9,5,19,0.02
2013-3-28,56,47,38,43,38,35,91,72,49,0.00,40.00,10,5,16,0.01
2013-3-29,63,47,34,40,35,31,98,69,31,0.00,40.00,7,5,14,0.01
2013-3-30,71,53,33,39,34,29,94,54,23,0.00,40.00,9,5,14,0.00
2013-3-31,55,47,41,44,37,29,97,70,44,0.00,40.00,13,6,21,0.22